Weather History for KHRI - August, 2013

Change the Weather History Date:

Sunday, August 18, 2013

  Actual Average (WUND) Record (WUND)
Temperature  
Mean Temperature 75 °F -  
Max Temperature 93 °F - - (-1)
Min Temperature 57 °F - - (-1)
Cooling Degree Days 10    
Growing Degree Days 25 (Base 50)    
Moisture  
Dew Point 50 °F    
Average Humidity 42    
Maximum Humidity 78    
Minimum Humidity 21    
Precipitation  
Precipitation 0.00 in - - ()
Sea Level Pressure  
Sea Level Pressure 29.97 in    
Wind  
Wind Speed 7 mph (WSW)    
Max Wind Speed 16 mph    
Max Gust Speed 23 mph    
Visibility 10 miles    
Events      
Averages and records for this station are not official NWS values.
T = Trace of Precipitation, MM = Missing Value Source: NWS Daily Summary

Daily Weather History Graph

Daily Weather History Graph

Search for Another Location

Airport or City:

Trip Planner

Search our weather history database for the weather conditions in past years. The results will help you decide how hot, cold, wet, or windy it might be!

Date:

Astronomy

Aug. 18, 2013 Rise Set
Actual Time 6:01 AM PDT 7:59 PM PDT
Civil Twilight 5:28 AM PDT 8:31 PM PDT
Nautical Twilight 4:49 AM PDT 9:10 PM PDT
Astronomical Twilight 4:05 AM PDT 9:54 PM PDT
Moon 6:12 PM PDT (8/18) 3:11 AM PDT (8/18)
Length of Visible Light 15h 02m
Length of Day
13h 58m
Waxing Gibbous, 93% of the Moon is Illuminated
Aug 18
Waxing Gibbous
Aug 20
Full
Aug 28
Last Quarter
Sep 5
New
Sep 12
First Quarter

Hourly Weather History & Observations

Time (PDT) Temp. Heat Index Dew Point Humidity Pressure Visibility Wind Dir Wind Speed Gust Speed Precip Events Conditions
12:53 AM 70.0 °F - 51.1 °F 51% 29.97 in 10.0 mi WSW 10.4 mph - N/A   Clear
1:53 AM 70.0 °F - 51.1 °F 51% 29.98 in 10.0 mi SW 10.4 mph - N/A   Clear
2:53 AM 61.0 °F - 51.1 °F 70% 29.99 in 10.0 mi Calm Calm - N/A   Clear
3:53 AM 64.0 °F - 52.0 °F 65% 30.00 in 10.0 mi SW 6.9 mph - N/A   Clear
4:53 AM 57.9 °F - 51.1 °F 78% 30.01 in 10.0 mi SSE 3.5 mph - N/A   Clear
5:53 AM 61.0 °F - 52.0 °F 72% 30.02 in 10.0 mi SSW 4.6 mph - N/A   Clear
6:53 AM 62.1 °F - 52.0 °F 70% 30.04 in 10.0 mi Calm Calm - N/A   Clear
7:53 AM 70.0 °F - 54.0 °F 57% 30.04 in 10.0 mi WSW 3.5 mph - N/A   Clear
8:53 AM 73.0 °F - 55.9 °F 55% 30.05 in 10.0 mi WNW 4.6 mph - N/A   Clear
9:53 AM 78.1 °F - 55.0 °F 45% 30.04 in 10.0 mi West 8.1 mph - N/A   Clear
10:53 AM 81.0 °F 80.4 °F 53.1 °F 38% 30.03 in 10.0 mi WSW 5.8 mph - N/A   Clear
11:53 AM 84.0 °F - 51.1 °F 32% 30.02 in 10.0 mi WSW 10.4 mph - N/A   Clear
12:53 PM 87.1 °F - 48.0 °F 26% 30.00 in 10.0 mi Variable 6.9 mph 16.1 mph N/A   Clear
1:53 PM 89.1 °F - 48.0 °F 24% 29.99 in 10.0 mi West 9.2 mph 18.4 mph N/A   Clear
2:53 PM 91.0 °F - 50.0 °F 24% 29.96 in 10.0 mi WNW 8.1 mph - N/A   Clear
3:53 PM 93.0 °F - 48.0 °F 21% 29.93 in 10.0 mi West 9.2 mph - N/A   Clear
4:53 PM 93.0 °F - 48.0 °F 21% 29.91 in 10.0 mi West 8.1 mph 19.6 mph N/A   Clear
5:53 PM 93.0 °F - 48.0 °F 21% 29.90 in 10.0 mi West 10.4 mph - N/A   Clear
6:53 PM 90.0 °F - 48.0 °F 24% 29.89 in 10.0 mi WSW 5.8 mph - N/A   Clear
7:53 PM 82.9 °F - 48.0 °F 29% 29.89 in 10.0 mi SW 5.8 mph - N/A   Clear
8:53 PM 79.0 °F - 45.0 °F 30% 29.90 in 10.0 mi SSW 9.2 mph - N/A   Clear
9:53 PM 77.0 °F - 45.0 °F 32% 29.92 in 10.0 mi SSW 12.7 mph - N/A   Clear
10:53 PM 77.0 °F - 48.0 °F 36% 29.94 in 10.0 mi SW 13.8 mph - N/A   Clear
11:53 PM 75.0 °F - 48.9 °F 40% 29.95 in 10.0 mi SW 16.1 mph 23.0 mph N/A   Clear